This demonstration page uses our WeatherBlox Daily Observations layout. Learn more.

Left ArrowRight Arrow

47.50024, -111.30081

Hourly Observations for April 21, 2020

Temp ( °F °C ) Dew Point ( °F °C ) Humidity (%) Winds ( mph kmh ) Pressure ( in mb ) Visibility ( mi km ) Precip ( " mm )
12:53 am 00:53 Clear 40 4.4 29 -1.7 65 65 SW 9 15 29.91 1013 10 16 0.00 0.00
1:53 am 01:53 Clear 38 3.3 28 -2.2 68 68 SSW 12 19 29.90 1013 10 16 0.00 0.00
2:53 am 02:53 Clear 37 2.8 28 -2.2 70 70 SSW 12 19 29.89 1012 10 16 0.00 0.00
3:53 am 03:53 Clear 38 3.3 28 -2.2 68 68 SSW 12 19 29.89 1012 10 16 0.00 0.00
4:53 am 04:53 Clear 37 2.8 28 -2.2 70 70 SSW 12 19 29.91 1013 10 16 0.00 0.00
5:53 am 05:53 Clear 38 3.3 28 -2.2 68 68 SW 10 17 29.91 1013 10 16 0.00 0.00
6:53 am 06:53 Sunny 39 3.9 29 -1.7 67 67 SSW 10 17 29.92 1013 10 16 0.00 0.00
7:53 am 07:53 Sunny 46 7.8 31 -0.6 56 56 SW 13 20 29.93 1014 10 16 0.00 0.00
8:53 am 08:53 Sunny 53 11.7 31 -0.6 43 43 SW 16 26 29.93 1013 10 16 0.00 0.00
9:53 am 09:53 Sunny 59 15 31 -0.6 35 35 WSW 21 33 29.91 1013 10 16 0.00 0.00
10:53 am 10:53 Sunny 62 16.7 30 -1.1 30 30 WSW 20 31 29.90 1013 10 16 0.00 0.00
11:53 am 11:53 Sunny 65 18.3 30 -1.1 27 27 W 20 31 29.89 1012 10 16 0.00 0.00
12:53 pm 12:53 Mostly Sunny 64 17.8 27 -2.8 25 25 W 16 26 29.90 1012 10 16 0.00 0.00
1:53 pm 13:53 Sunny 68 20 27 -2.8 21 21 W 22 35 29.87 1012 10 16 0.00 0.00
2:53 pm 14:53 Sunny 68 20 26 -3.3 21 21 WSW 20 31 29.85 1011 10 16 0.00 0.00
3:53 pm 15:53 Sunny 68 20 22 -5.6 17 17 W 18 30 29.84 1011 10 16 0.00 0.00
4:53 pm 16:53 Sunny 69 20.6 23 -5 17 17 W 24 39 29.82 1010 10 16 0.00 0.00
5:53 pm 17:53 Sunny 67 19.4 20 -6.7 17 17 W 23 37 29.83 1010 10 16 0.00 0.00
6:53 pm 18:53 Sunny 65 18.3 22 -5.6 19 19 W 22 35 29.84 1011 10 16 0.00 0.00
7:53 pm 19:53 Sunny 61 16.1 23 -5 23 23 W 15 24 29.84 1011 10 16 0.00 0.00
8:53 pm 20:53 Clear 51 10.6 25 -3.9 36 36 W 13 20 29.87 1012 10 16 0.00 0.00
9:53 pm 21:53 Clear 49 9.4 25 -3.9 39 39 W 10 17 29.88 1012 10 16 0.00 0.00
10:53 pm 22:53 Clear 46 7.8 26 -3.3 46 46 WSW 10 17 29.89 1012 10 16 0.00 0.00
11:53 pm 23:53 Clear 51 10.6 26 -3.3 38 38 W 17 28 29.88 1012 10 16 0.00 0.00

Powered by AerisWeather